RH
43 38 34 30 21 18 18 18 21 49 55 44 44 43 28 26 27 23 22 20 28 83 90 88 92 90 87 85 89 94 95 90 86 83 90 87 89 79
34 28 22 17 16 15 15 15 14 20 40 39 40 37 29 28 31 25 24 26 31 61 92 92 94 91 90 89 97 98 94 88 88 85 86 84 80 80
35 26 20 18 17 16 15 13 13 15 23 46 42 36 33 32 32 26 22 25 36 55 90 94 96 94 94 92 98 96 98 89 92 90 81 79 77 78
41 29 24 23 23 20 18 16 15 17 19 35 41 40 41 42 34 27 24 32 44 56 68 71 97 96 97 100 99 100 100 90 92 92 87 81 79 77
52 36 28 26 25 23 20 19 23 26 23 26 45 52 48 43 36 29 29 38 50 59 59 62 74 92 99 100 93 95 100 90 93 92 86 84 83 80
62 46 34 29 25 22 22 25 30 29 32 42 49 48 46 54 48 53 50 36 48 59 60 66 69 69 85 86 82 93 98 99 93 94 91 85 86 84
68 53 39 33 29 24 22 30 30 34 45 43 44 51 59 68 64 73 68 52 54 64 58 70 64 69 83 84 93 97 99 98 96 96 93 92 87 87
73 56 44 40 38 32 33 30 28 32 34 38 54 55 70 72 69 75 81 84 82 68 78 68 72 76 82 90 95 94 98 98 96 96 92 94 88 88
75 58 50 44 40 41 42 40 37 36 35 27 48 46 59 61 69 79 83 85 82 70 83 86 75 77 77 85 94 96 98 98 97 99 95 89 92 87
78 62 50 44 48 44 46 40 68 59 53 74 49 53 56 72 83 87 82 78 70 76 92 95 76 80 75 83 88 92 98 98 97 100 94 91 96 84
82 76 52 45 51 45 35 67 77 93 88 65 72 65 78 98 94 83 80 74 86 80 88 98 79 88 76 73 78 79 84 92 100 100 97 95 95 81
88 84 63 53 59 70 86 76 94 98 85 86 78 70 82 92 80 77 85 88 99 94 87 96 91 88 86 73 72 79 80 86 88 90 73 97 96 90
91 82 83 68 94 98 98 95 98 85 85 70 66 80 86 86 84 86 88 87 94 94 83 99 95 96 97 90 81 78 84 90 90 88 78 82 82 93
94 93 88 98 99 99 99 99 90 79 74 73 80 89 87 87 87 85 87 92 92 88 87 97 99 98 98 97 91 84 88 90 100 96 86 83 76 64
95 95 94 98 98 99 98 99 100 71 65 73 85 90 90 88 92 84 85 86 83 84 89 93 99 96 96 98 99 94 98 88 96 100 91 89 86 80
100 100 99 99 99 97 100 99 88 58 62 76 86 90 92 93 88 82 84 84 80 78 81 96 90 94 94 92 96 96 96 98 87 99 98 88 87 84
99 100 100 99 98 99 97 92 76 81 81 85 92 94 94 88 81 85 90 92 93 93 86 88 84 84 82 81 96 96 98 89 87 100 98 93 92 86
100 100 99 98 98 100 92 90 88 92 90 91 91 91 86 81 87 87 88 91 93 90 92 96 93 85 79 72 94 98 99 92 95 96 100 98 91 86
97 96 96 94 94 88 70 75 92 92 84 86 87 85 85 89 97 89 88 89 89 89 87 92 91 97 100 100 79 84 91 90 98 89 98 99 94 88
92 88 90 92 87 87 85 90 89 80 61 77 81 80 90 90 90 90 93 94 93 96 90 86 95 94 99 97 97 85 82 91 100 100 98 100 95 88
92 97 97 96 96 91 86 92 56 50 52 64 64 79 89 89 91 90 92 97 100 97 92 90 93 96 94 92 96 87 80 96 100 99 100 100 99 96
100 97 96 96 95 94 85 58 54 62 59 59 64 71 75 88 88 89 92 90 92 95 94 94 89 89 97 92 96 97 97 95 96 98 99 100 98 96
97 96 96 94 96 96 82 57 54 60 65 58 54 54 67 84 91 90 93 94 94 92 97 95 90 94 97 100 100 99 96 97 100 94 91 98 95 94
Wind_Speed
19 18 18 17 16 15 13 14 7 4 5 9 8 5 5 7 8 11 13 15 15 13 15 15 17 18 19 19 18 20 23 23 28 30 31 34 35 38
20 20 19 18 16 14 14 13 11 7 3 10 7 5 4 6 7 10 13 14 14 11 14 15 16 17 18 18 16 20 23 23 27 29 30 32 34 37
23 22 21 19 18 16 14 12 11 10 5 7 9 5 3 4 6 9 13 13 13 9 14 15 15 17 17 17 15 18 22 23 27 27 29 30 33 35
27 26 24 22 20 17 15 13 12 10 6 7 9 6 2 5 8 10 12 12 8 9 14 11 14 17 16 15 15 18 21 22 25 27 27 28 30 33
32 31 29 25 23 20 17 15 12 10 7 7 6 5 4 5 8 11 11 12 7 8 13 9 13 17 13 13 14 15 19 20 23 27 26 27 28 30
36 34 31 29 27 23 21 17 15 11 9 8 6 5 3 3 7 12 14 15 9 8 13 10 15 15 8 10 14 14 18 19 22 25 26 26 27 28
38 35 33 30 26 25 24 20 17 14 11 9 7 6 2 3 5 7 11 16 7 11 18 10 17 18 9 11 16 16 17 18 21 23 24 27 27 27
41 36 33 29 26 24 21 19 16 15 13 9 7 2 4 3 4 6 8 9 7 9 19 12 17 19 10 8 14 16 14 16 18 21 23 24 25 25
42 37 32 31 28 25 21 19 18 14 11 11 7 9 7 5 2 4 6 7 6 11 13 8 17 19 15 5 12 14 15 15 17 20 21 22 24 23
42 42 40 37 33 30 26 18 12 12 11 11 10 8 6 4 3 5 7 8 8 6 4 5 18 22 15 2 8 14 16 15 15 17 18 19 20 22
35 36 41 39 35 30 24 22 18 14 10 9 8 6 6 5 6 5 5 6 5 2 4 13 14 21 11 4 6 10 14 14 13 14 15 17 18 22
32 32 32 34 31 28 24 24 23 21 17 14 10 8 8 8 5 4 3 2 1 4 2 11 11 16 8 6 20 12 16 14 11 12 15 15 17 20
33 36 36 34 27 26 25 24 23 20 18 13 11 11 8 5 4 4 4 2 5 7 6 9 9 9 7 11 18 10 19 15 11 11 13 14 15 15
34 34 36 32 26 24 21 19 19 20 17 16 13 10 8 7 6 5 4 6 7 8 5 6 9 11 11 12 10 18 19 11 9 12 12 13 14 14
32 35 35 31 27 23 20 19 19 20 19 18 14 11 9 6 3 2 3 5 5 4 3 6 9 10 12 14 15 17 17 16 6 13 8 13 15 16
28 28 31 32 29 24 22 21 22 20 19 17 13 11 8 6 4 0 1 1 3 4 1 2 7 11 16 17 17 17 12 9 14 12 10 6 9 12
32 33 32 30 29 27 25 24 20 18 15 14 14 12 9 6 4 1 2 3 2 6 6 3 7 11 10 12 8 5 6 9 12 11 10 9 8 9
36 32 28 28 26 27 27 24 20 16 16 16 15 13 11 7 5 2 1 2 5 7 9 8 11 16 15 3 5 7 8 14 13 8 8 10 10 7
29 29 28 27 26 28 27 26 22 21 19 17 16 14 11 10 7 5 1 1 2 4 6 6 9 11 7 1 8 5 10 17 14 14 8 9 11 8
29 30 28 28 29 29 28 26 23 22 19 18 16 13 13 11 9 6 3 2 2 6 8 5 5 9 9 5 8 17 13 14 12 12 12 8 9 8
29 29 31 32 31 31 29 27 26 23 21 18 16 16 14 11 9 6 3 2 4 6 7 7 6 9 11 12 11 17 14 9 8 10 10 8 8 5
31 33 32 31 33 31 29 27 24 22 21 19 18 15 13 11 8 6 3 1 1 6 10 10 8 8 10 11 14 17 15 9 7 5 4 4 4 2
33 34 34 35 32 30 28 28 26 23 21 19 17 15 13 11 8 6 3 1 3 5 8 12 11 10 11 12 13 14 13 10 7 6 3 2 2 3
Wind_Direction
224 223 222 218 215 214 216 206 178 179 223 197 195 226 321 335 347 353 359 3 357 10 7 1 358 358 355 355 355 357 1 359 356 354 354 355 356 355
221 220 219 217 213 211 209 209 212 184 181 196 192 210 307 328 344 351 358 1 355 10 9 357 358 355 352 352 353 354 356 360 356 355 357 357 359 360
222 221 220 218 213 210 207 205 203 197 160 186 194 207 284 320 344 353 355 359 357 16 5 359 359 353 353 353 353 354 355 1 356 356 359 359 1 2
226 221 219 215 213 212 209 207 202 197 188 165 192 202 266 339 346 350 1 5 5 18 5 5 358 353 359 358 355 358 359 1 358 359 358 360 3 5
229 226 222 215 212 209 207 207 201 194 184 164 181 206 230 326 339 350 0 13 17 20 15 17 1 357 1 359 1 3 6 358 1 2 359 358 358 1
231 229 225 220 217 211 207 205 198 191 184 168 171 190 220 301 334 348 356 6 2 6 16 16 5 6 13 10 15 0 0 2 0 359 2 1 1 2
229 227 225 224 221 216 208 199 196 191 181 178 178 187 177 298 352 347 346 352 0 0 356 3 2 3 12 14 14 354 355 357 360 357 1 4 4 3
227 221 218 215 211 207 203 200 195 191 185 186 190 145 239 256 317 339 346 353 339 351 344 351 1 359 352 8 7 357 355 360 359 359 0 4 6 3
225 215 208 207 202 198 191 187 180 186 208 190 197 211 207 234 260 304 321 324 325 343 341 322 350 345 347 303 2 353 360 354 354 359 3 3 7 7
225 214 205 200 195 189 182 178 189 189 202 226 212 200 208 217 234 279 303 316 345 12 357 291 338 339 345 305 334 357 355 352 352 359 3 5 4 6
218 212 205 196 189 188 185 181 182 201 202 202 200 193 175 176 225 256 282 350 18 333 293 339 333 333 336 332 320 343 349 349 349 356 6 5 3 5
202 199 200 193 180 183 199 191 192 198 186 186 196 190 188 197 238 257 238 97 322 315 299 336 324 347 320 305 333 339 348 346 348 353 2 6 6 1
184 190 191 190 187 197 198 199 212 193 183 194 190 187 196 215 226 238 244 250 238 244 284 323 306 318 288 303 318 327 341 342 348 6 2 7 7 12
191 186 189 191 182 187 194 197 194 186 183 178 181 185 199 209 213 218 219 227 246 275 289 294 286 310 309 303 295 314 334 347 345 355 357 3 11 20
196 190 187 183 181 183 184 176 178 182 181 179 184 195 203 209 229 186 193 236 233 222 301 281 281 304 309 296 294 309 328 332 330 341 345 358 6 8
179 175 176 173 175 174 166 172 190 185 186 183 185 196 197 199 195 330 90 80 165 224 226 307 314 313 309 302 298 294 306 307 327 329 322 329 349 6
171 162 162 164 157 162 173 184 179 178 178 189 187 187 193 196 185 232 72 42 3 336 332 338 343 325 309 299 291 281 312 332 326 315 318 300 319 354
165 164 161 164 164 168 173 174 174 180 193 190 189 191 190 189 180 146 129 346 322 344 342 345 352 350 354 335 261 287 307 324 333 318 307 302 309 330
167 169 168 169 169 174 176 178 184 195 193 190 192 189 188 181 181 166 160 265 286 329 335 330 346 347 311 247 314 277 315 326 318 329 313 283 291 312
172 169 168 170 171 176 182 185 192 190 189 191 188 186 192 189 179 181 205 230 313 323 315 311 322 333 307 300 305 302 321 297 300 312 323 289 287 294
171 167 168 172 180 183 186 190 192 190 190 188 189 193 195 190 186 187 220 236 288 290 303 312 312 299 309 306 299 310 323 315 282 297 305 290 279 291
165 166 172 177 181 187 187 189 184 184 186 188 190 191 193 192 189 192 215 247 305 319 313 327 328 304 303 306 299 306 311 318 305 290 296 281 275 288
164 169 174 181 187 185 188 188 185 186 189 188 189 190 191 187 187 198 196 238 313 329 337 329 333 323 315 305 296 300 308 303 288 283 311 309 288 296